Home   Weather   Rainy River   Past weeks

Flag for Canada Past Weather in Rainy River, Ontario, Canada — Yesterday and Last 2 Weeks

Now
28 °F

Light snow. Cloudy.


Feels Like: 16 °F
Forecast: 23 / 28 °F
Wind: 16 mph from Northeast

Location: Baudette International Airport

Current Time: Apr 26, 2017 at 12:58:42 pm

Latest Report: Apr 26, 2017 at 12:01 pm


Visibility: 1 mi

Pressure: 29.78 "Hg

Humidity: 81%

Dew Point: 23 °F

Location of Rainy RiverLocation

Past Weather in Rainy River — Graph

°F

Rainy River Temperature Yesterday

Maximum temperature yesterday: 33 °F (at 12:53 am)
Minimum temperature yesterday: 28 °F (at 11:53 pm)
Average temperature yesterday: 32 °F

High & Low Weather Summary for the Past Weeks

 TemperatureHumidityPressure
High68 °F (Apr 14, 1:53 pm)100% (Apr 19, 7:24 am)30.35 "Hg (Apr 19, 7:24 am)
Low24 °F (Apr 26, 6:27 am)21% (Apr 11, 2:53 pm)29.64 "Hg (Apr 24, 10:38 pm)
Average41 °F70%30.03 "Hg
* Reported Apr 11 11:53 am — Apr 26 11:24 am, Rainy River, Weather by CustomWeather, © 2017

Note: Actual official high and low records may vary slightly from our data, if they occured in-between our weather recording intervals... More about our weather records

Advertising

Rainy River Weather History for the Previous 24 Hours

Scroll right to see more
 ConditionsComfort  
Time TempWeatherWind HumidityBarometerVisibility
11:24 am
Wed, Apr 26
27 °FLight snow. More clouds than sun.16 mph81%29.79 "Hg1 mi
10:53 am26 °FLight snow. Mostly cloudy.15 mph81%29.85 "Hg1 mi
10:44 am27 °FLight snow. Mostly cloudy.16 mph78%29.80 "Hg1 mi
9:53 am26 °FLight snow. Overcast.14 mph77%29.85 "Hg3 mi
9:34 am26 °FLight snow. Overcast.14 mph77%29.81 "Hg4 mi
8:53 am25 °FLight snow. Overcast.20 mph78%29.87 "Hg8 mi
7:53 am25 °FOvercast.15 mph78%29.87 "Hg10 mi
7:31 am25 °FLight snow. Mostly cloudy.16 mph78%29.82 "Hg8 mi
6:53 am24 °FOvercast.15 mph81%29.87 "Hg10 mi
6:27 am24 °FOvercast.16 mph84%29.83 "Hg9 mi
5:53 am25 °FOvercast.16 mph78%29.88 "Hg10 mi
4:53 am25 °FOvercast.17 mph78%29.89 "Hg10 mi
3:53 am26 °FOvercast.17 mph74%29.88 "Hg10 mi
2:53 am27 °FOvercast.18 mph75%29.90 "Hg10 mi
1:53 am27 °FOvercast.20 mph75%29.93 "Hg10 mi
12:53 am28 °FOvercast.15 mph72%29.93 "Hg10 mi
11:53 pm
Tue, Apr 25
28 °FOvercast.22 mph72%29.95 "Hg10 mi
10:53 pm29 °FOvercast.18 mph75%29.95 "Hg10 mi
9:53 pm29 °FOvercast.17 mph75%29.96 "Hg10 mi
8:53 pm30 °FOvercast.13 mph75%29.95 "Hg10 mi
7:53 pm30 °FOvercast.14 mph79%29.94 "Hg10 mi
6:53 pm31 °FOvercast.18 mph76%29.92 "Hg10 mi
5:53 pm32 °FOvercast.21 mph75%29.91 "Hg10 mi
4:53 pm32 °FOvercast.17 mph75%29.88 "Hg10 mi
3:53 pm33 °FOvercast.18 mph75%29.88 "Hg10 mi
2:53 pm33 °FOvercast.16 mph75%29.88 "Hg10 mi
1:53 pm32 °FOvercast.17 mph79%29.86 "Hg10 mi
1:08 pm33 °FOvercast.18 mph75%29.79 "Hg10 mi
12:38 pm32 °FOvercast.16 mph79%29.80 "Hg10 mi
12:04 pm32 °FOvercast.15 mph82%29.81 "Hg10 mi
Weather by CustomWeather, © 2017

See weather overviewHow to use our weather pages